Location: Freiburg+im+Breisgau
(48.0359°N, 7.8195°E)
Time: 08:30:27
(UTC+01:00)

ISS - Pass Details

Date: 05 January 2018
Orbit: 402 x 406 km, 51.6° (Epoch: 16 January)

Event Time Altitude Azimuth Distance (km) Brightness Sun altitude
Exits shadow 06:05:46 40° 31° (NNE) 620 -2.8 -21.2°
Drops below altitude 10° 06:08:16 10° 66° (ENE) 1,469 -0.2 -20.8°
Sets 06:10:24 0° 73° (ENE) 2,331 1.1 -20.5°
